Wind_Speed
29 29 28 28 28 28 28 28 28 28 28 29 29 29 30 30 31 31 32 32 32 33 33 34 34 35 35 36 36 37 38 39 39 40 41 41 42 43 44 45 45 46 46
30 29 29 29 29 29 29 29 29 29 29 29 30 30 31 31 32 33 33 33 33 34 35 35 36 36 37 37 38 38 39 39 40 41 42 42 43 44 45 46 46 47 48
31 30 30 30 30 30 30 30 30 30 30 30 31 32 32 33 34 34 35 35 35 35 35 36 36 37 38 38 39 39 40 40 41 42 42 43 44 45 46 46 47 48 49
32 31 31 31 30 30 30 31 31 31 31 32 33 33 34 35 36 36 36 36 37 37 37 37 38 38 39 39 40 40 41 41 42 42 43 44 45 45 46 47 48 49 49
32 32 32 32 31 31 31 31 32 33 33 34 35 36 36 37 37 38 38 38 39 39 39 39 40 40 41 41 42 42 43 43 44 44 45 46 46 47 47 48 48 49 50
33 33 33 32 32 32 32 33 33 34 35 36 37 38 38 39 39 40 41 41 41 41 42 42 42 43 43 43 44 44 45 46 46 47 47 48 48 49 49 49 50 50 51
34 33 33 33 33 33 34 34 35 36 37 37 38 39 40 41 42 42 43 43 43 44 44 45 45 45 45 46 46 47 47 48 48 49 49 50 50 51 51 52 52 52 53
34 34 34 34 34 34 35 36 37 38 38 39 40 40 41 42 43 44 44 45 46 46 46 47 47 48 48 48 48 49 49 49 50 51 51 52 53 53 54 54 55 55 55
34 34 35 35 36 36 37 38 39 40 40 41 42 42 42 43 43 44 45 47 47 48 48 49 49 50 50 50 50 51 52 52 53 53 54 55 55 56 56 57 57 58 58
35 35 36 37 37 38 39 40 41 42 43 43 43 44 45 45 45 44 45 47 48 48 49 50 51 52 52 52 53 53 54 55 55 56 57 57 58 58 59 59 60 60 61
36 36 37 38 38 39 41 42 43 44 44 45 45 46 46 47 47 47 45 46 47 48 49 51 52 52 53 54 55 56 56 57 58 58 59 60 60 61 61 62 63 63 63
37 38 38 39 40 41 43 44 44 45 46 47 47 48 48 48 49 49 48 47 47 48 49 50 51 53 54 55 56 57 58 59 60 60 61 61 62 63 63 64 65 66 66
38 39 40 41 42 43 44 45 46 47 48 48 49 49 49 49 50 50 50 49 48 48 49 50 51 53 55 56 57 58 59 60 61 62 63 64 65 66 67 67 68 68 69
39 40 41 42 43 44 45 46 47 48 49 49 49 50 50 50 50 51 51 51 51 50 50 51 52 54 56 57 58 59 60 61 62 64 65 66 67 68 69 70 71 71 72
40 41 42 43 44 46 47 48 49 49 49 50 50 50 51 51 51 52 52 53 53 53 52 52 54 55 57 58 59 61 62 63 64 66 67 69 70 71 72 73 73 73 74
41 42 44 45 46 47 48 48 49 50 50 50 51 51 52 52 52 53 53 54 55 56 56 56 57 58 59 60 61 63 64 66 67 69 70 72 73 74 75 75 76 76 76
42 44 45 46 47 48 49 49 50 50 50 51 51 52 52 52 53 54 54 55 56 58 58 58 60 61 63 64 65 67 68 70 71 73 74 76 76 77 78 78 78 78 79
44 45 46 47 47 48 49 50 50 50 51 51 52 52 52 53 54 55 56 57 58 60 61 61 63 65 66 68 70 71 73 75 77 78 79 80 80 80 80 80 80 80 79
45 45 46 47 48 49 50 50 51 51 51 52 52 53 54 55 55 56 58 59 61 62 64 65 67 69 71 73 75 76 78 79 81 81 82 82 82 81 80 79 78 77 76
44 45 47 48 49 50 50 51 51 51 52 52 53 54 55 56 57 59 60 62 64 65 67 69 71 73 75 77 79 80 81 81 81 81 81 80 79 78 76 75 74 73 72
45 46 47 49 49 50 51 51 52 52 53 54 55 56 57 58 60 62 63 65 67 69 71 74 75 77 78 80 82 83 83 81 80 79 77 75 74 72 71 69 68 66 65
45 47 48 49 50 51 52 52 53 53 54 55 56 58 59 61 63 64 66 69 71 74 76 79 80 81 82 83 83 83 82 79 75 73 72 69 67 65 64 61 59 58 56
47 48 49 49 50 52 52 53 54 55 56 58 59 61 62 64 66 68 70 72 74 77 80 82 83 83 83 83 83 80 77 74 70 66 64 61 59 57 55 53 51 49 47
47 48 49 51 52 53 54 55 56 58 59 60 62 64 65 67 70 72 74 76 78 80 81 83 83 83 82 80 78 75 71 67 62 58 56 53 49 48 46 44 43 42 40
47 49 50 52 53 54 56 57 59 60 61 63 65 67 69 71 73 76 78 79 80 81 81 81 81 80 77 74 71 67 62 58 53 48 47 45 42 41 39 38 36 36 35
48 50 51 53 55 56 58 59 61 63 65 66 68 70 72 73 76 78 80 81 81 80 79 78 76 72 69 65 61 57 54 50 46 41 39 38 36 35 33 32 31 31 30
Wind_Direction
285 286 286 286 287 288 287 287 287 287 288 288 288 288 288 288 287 286 285 284 283 282 281 280 278 277 277 276 275 273 272 271 270 269 268 267 266 265 265 264 264 263 263
285 285 285 286 286 287 287 287 288 288 288 288 288 288 288 288 288 287 286 285 283 282 281 280 279 278 277 276 275 274 273 272 271 270 269 268 267 267 266 265 265 264 264
284 284 284 285 286 287 287 287 288 288 289 289 289 289 289 289 289 288 287 286 284 283 282 280 279 278 277 276 275 274 273 272 272 271 270 270 269 268 267 267 266 265 265
283 283 284 285 286 286 286 287 288 289 290 290 291 291 291 291 290 290 289 287 285 284 282 280 279 278 277 276 275 274 274 273 272 272 271 271 270 269 269 268 267 267 266
282 283 283 284 285 286 287 288 289 290 291 291 292 292 292 292 291 290 289 288 286 285 283 282 280 279 278 277 276 275 274 274 273 272 272 271 271 270 270 269 268 268 267
282 283 283 284 285 286 287 288 289 290 291 292 292 292 292 292 292 291 290 288 287 285 284 283 281 280 278 277 276 276 275 275 274 274 273 272 272 271 271 270 269 268 268
282 283 284 285 285 286 288 289 290 291 292 293 292 292 291 292 291 291 290 289 287 286 285 283 282 281 279 278 278 277 276 276 275 274 274 273 272 272 271 270 270 269 268
281 282 283 285 286 287 289 290 291 292 292 293 292 292 291 291 291 291 290 289 288 287 285 284 283 281 280 279 279 278 277 277 276 275 274 274 273 272 272 271 270 269 269
281 283 284 285 286 288 289 290 291 292 293 293 293 292 292 291 290 290 290 289 288 287 286 285 284 283 282 281 280 279 279 278 278 277 276 275 274 273 273 272 271 270 269
281 283 284 286 286 288 289 291 292 292 293 294 294 294 293 292 290 289 288 288 288 287 286 286 285 284 283 283 282 281 281 280 279 279 278 277 276 275 274 273 272 271 270
281 283 284 286 287 288 290 291 293 293 294 294 294 294 293 293 292 290 288 287 286 286 285 285 284 283 283 283 283 282 282 281 281 280 279 278 277 276 275 275 274 273 272
282 283 284 286 287 289 291 292 293 293 294 294 294 294 294 293 292 291 289 288 287 286 285 285 284 283 283 283 283 282 282 282 282 281 280 279 278 277 277 276 275 274 273
282 284 286 287 289 291 292 292 293 293 294 295 295 295 294 294 293 291 290 289 287 287 286 285 285 284 284 284 283 283 283 283 282 282 281 281 280 279 278 277 276 275 274
284 286 287 289 290 291 292 293 293 294 294 295 295 295 295 294 293 292 291 290 289 288 287 286 285 285 285 285 285 284 284 283 283 282 282 281 280 280 279 278 277 276 275
285 286 287 289 290 291 292 293 294 294 294 295 295 295 295 294 293 293 292 292 291 290 288 288 287 287 286 286 285 285 284 284 283 283 282 281 281 280 279 279 278 277 276
285 287 288 289 291 292 293 294 294 295 295 296 296 296 295 295 294 294 293 293 293 292 291 290 290 289 288 288 287 286 286 285 285 284 283 282 282 280 279 279 278 277 276
286 288 289 291 292 293 294 294 295 296 296 296 296 296 296 295 295 294 294 294 294 293 293 292 292 292 291 291 290 289 289 288 287 286 285 284 283 282 281 280 279 277 276
287 289 290 291 293 294 294 295 296 296 297 297 297 296 296 296 296 296 295 295 295 295 294 294 294 293 293 292 292 291 291 290 289 289 288 287 286 284 283 281 280 278 277
288 289 291 292 293 294 295 296 296 297 297 297 297 297 298 297 297 297 297 297 296 296 296 296 295 295 294 294 293 293 292 292 291 290 289 288 286 285 284 282 281 279 277
289 291 292 293 294 295 296 296 297 297 298 298 298 298 299 298 298 298 298 298 298 297 297 297 297 296 296 295 295 294 293 293 292 290 289 288 286 285 284 282 280 279 277
290 292 293 293 294 295 296 296 297 298 298 299 299 299 299 300 299 299 299 299 299 299 299 298 298 297 297 296 296 295 295 294 293 291 289 288 286 284 283 281 280 278 277
291 293 293 294 295 295 296 297 298 298 299 299 299 300 300 300 300 300 300 300 300 300 300 300 300 299 299 298 298 297 296 295 293 291 289 287 285 284 283 281 280 278 276
292 293 294 294 295 296 297 298 298 299 299 300 300 301 301 301 301 301 301 301 301 302 301 301 301 301 300 300 299 298 296 295 293 291 289 287 285 284 282 280 279 277 274
293 293 294 294 296 297 298 298 299 300 300 301 302 302 302 302 302 302 302 302 302 302 302 301 302 302 301 301 299 298 297 295 293 291 289 287 284 282 280 279 277 275 273
293 294 294 295 296 297 298 299 300 301 301 302 303 303 303 303 303 302 303 303 303 303 302 302 302 302 301 301 300 298 297 295 293 291 288 286 283 280 279 277 275 273 272
294 295 295 296 297 298 298 300 301 302 302 303 303 303 304 304 304 303 303 304 303 303 303 303 302 302 301 301 299 298 297 295 293 291 287 285 283 280 277 275 273 272 270
Height
5831 5829 5828 5826 5824 5822 5820 5818 5816 5814 5812 5810 5808 5806 5805 5803 5801 5799 5798 5796 5795 5793 5791 5790 5788 5787 5786 5785 5784 5783 5782 5782 5781 5781 5781 5780 5780 5780 5780 5781 5781 5781 5782
5825 5823 5822 5820 5818 5816 5814 5812 5810 5808 5806 5804 5802 5800 5797 5795 5794 5792 5790 5789 5787 5785 5783 5782 5780 5779 5777 5776 5775 5774 5773 5773 5772 5772 5771 5771 5771 5771 5770 5770 5771 5771 5771
5819 5817 5815 5813 5812 5810 5808 5806 5804 5802 5800 5797 5795 5793 5790 5788 5786 5784 5782 5780 5779 5777 5775 5773 5772 5770 5769 5767 5766 5765 5764 5763 5763 5762 5761 5761 5760 5760 5760 5760 5760 5760 5760
5812 5810 5809 5807 5805 5803 5801 5799 5797 5795 5792 5790 5788 5785 5783 5780 5778 5776 5774 5772 5770 5768 5766 5764 5763 5761 5760 5758 5757 5756 5754 5753 5752 5752 5751 5750 5750 5749 5749 5749 5748 5748 5748
5805 5803 5802 5800 5798 5796 5794 5792 5790 5787 5785 5783 5780 5777 5775 5772 5769 5767 5765 5763 5761 5759 5757 5755 5753 5752 5750 5748 5747 5746 5744 5743 5742 5741 5740 5739 5738 5738 5737 5737 5736 5736 5736
5798 5796 5794 5792 5790 5789 5787 5784 5782 5780 5777 5775 5772 5769 5766 5763 5760 5758 5755 5753 5751 5748 5746 5745 5743 5741 5739 5738 5736 5735 5733 5732 5731 5729 5728 5727 5726 5726 5725 5725 5724 5724 5724
5790 5789 5787 5785 5783 5781 5779 5777 5774 5772 5769 5766 5764 5761 5758 5754 5751 5748 5745 5742 5740 5738 5736 5733 5731 5729 5728 5726 5725 5723 5721 5720 5718 5717 5716 5715 5714 5713 5712 5712 5711 5711 5710
5782 5781 5779 5777 5775 5773 5771 5769 5766 5763 5761 5758 5755 5752 5749 5746 5742 5738 5735 5732 5729 5726 5724 5722 5719 5717 5716 5714 5712 5711 5709 5707 5706 5704 5703 5701 5700 5699 5698 5698 5697 5696 5696
5775 5773 5771 5769 5767 5765 5763 5760 5757 5754 5752 5748 5745 5742 5739 5737 5733 5729 5725 5721 5718 5715 5712 5709 5707 5705 5703 5701 5699 5697 5695 5694 5692 5690 5689 5687 5686 5684 5683 5682 5682 5681 5681
5767 5765 5763 5761 5759 5756 5754 5751 5748 5745 5741 5738 5735 5731 5728 5725 5722 5720 5716 5711 5707 5704 5700 5697 5694 5692 5689 5687 5685 5683 5681 5679 5677 5675 5673 5672 5670 5669 5667 5666 5665 5665 5664
5758 5756 5754 5752 5750 5747 5744 5741 5738 5735 5731 5728 5724 5721 5717 5714 5710 5708 5706 5701 5697 5693 5689 5686 5682 5679 5676 5674 5671 5669 5666 5664 5662 5659 5657 5655 5654 5652 5650 5649 5648 5647 5646
5750 5747 5745 5743 5740 5737 5734 5731 5728 5724 5721 5717 5713 5709 5706 5702 5699 5695 5693 5690 5686 5682 5678 5673 5670 5666 5663 5660 5658 5655 5652 5649 5646 5643 5641 5639 5636 5634 5633 5631 5629 5628 5627
5741 5738 5736 5733 5730 5727 5724 5721 5717 5713 5710 5706 5702 5698 5694 5690 5686 5682 5680 5677 5674 5670 5666 5662 5657 5653 5649 5646 5643 5640 5637 5633 5630 5627 5624 5621 5618 5616 5614 5612 5610 5608 5607
5731 5729 5726 5723 5720 5717 5713 5710 5706 5702 5698 5694 5690 5686 5681 5677 5673 5669 5666 5663 5660 5658 5653 5649 5644 5639 5635 5631 5627 5624 5621 5617 5614 5610 5606 5603 5600 5597 5594 5592 5590 5588 5586
5721 5719 5716 5713 5710 5706 5702 5698 5695 5691 5686 5682 5678 5673 5669 5664 5660 5656 5652 5648 5645 5642 5640 5635 5630 5625 5620 5616 5612 5607 5604 5600 5596 5592 5587 5584 5580 5576 5573 5570 5568 5566 5564
5711 5709 5706 5702 5699 5695 5691 5687 5683 5678 5674 5670 5665 5661 5656 5651 5647 5642 5638 5634 5629 5625 5623 5620 5614 5609 5604 5600 5595 5590 5586 5581 5577 5572 5567 5563 5559 5555 5551 5548 5545 5543 5541
5701 5698 5695 5692 5688 5684 5679 5675 5671 5666 5662 5657 5652 5648 5643 5638 5634 5629 5624 5619 5614 5609 5606 5604 5597 5591 5586 5581 5576 5571 5565 5560 5556 5551 5545 5540 5535 5531 5527 5524 5521 5518 5516
5691 5687 5684 5680 5676 5672 5668 5663 5659 5654 5649 5645 5640 5635 5630 5625 5620 5615 5610 5604 5599 5594 5589 5586 5581 5574 5568 5561 5555 5550 5544 5538 5532 5527 5520 5514 5509 5504 5500 5497 5494 5491 5489
5680 5676 5673 5669 5664 5660 5656 5651 5647 5642 5637 5632 5627 5622 5617 5611 5606 5600 5595 5589 5583 5577 5571 5567 5562 5556 5549 5541 5534 5528 5522 5515 5508 5501 5494 5488 5482 5477 5472 5469 5465 5463 5461
5669 5665 5661 5657 5653 5648 5644 5639 5634 5629 5624 5619 5613 5608 5602 5597 5591 5585 5579 5573 5566 5560 5553 5547 5542 5535 5528 5519 5511 5504 5498 5491 5483 5475 5468 5461 5456 5451 5446 5442 5439 5437 5435
5658 5654 5650 5645 5641 5636 5631 5626 5622 5617 5611 5606 5600 5594 5588 5582 5575 5569 5562 5556 5548 5541 5534 5526 5520 5513 5506 5496 5487 5479 5472 5465 5458 5448 5442 5437 5430 5426 5422 5418 5415 5413 5412
5646 5642 5638 5633 5628 5624 5619 5614 5608 5603 5598 5592 5586 5580 5573 5567 5560 5553 5545 5538 5529 5520 5512 5504 5497 5489 5481 5471 5461 5453 5445 5438 5434 5426 5417 5414 5406 5403 5399 5396 5394 5392 5392
5635 5630 5626 5621 5616 5611 5606 5600 5595 5589 5584 5577 5571 5564 5558 5550 5542 5535 5528 5520 5511 5500 5490 5480 5472 5464 5455 5446 5436 5428 5420 5413 5408 5402 5394 5392 5387 5383 5380 5378 5376 5375 5375
5623 5618 5613 5608 5603 5598 5592 5587 5581 5575 5569 5562 5555 5548 5541 5533 5524 5515 5508 5500 5491 5481 5470 5459 5449 5440 5430 5420 5411 5403 5397 5391 5388 5382 5375 5373 5370 5367 5365 5363 5362 5361 5361
5610 5606 5601 5596 5590 5585 5578 5572 5566 5560 5554 5547 5540 5532 5523 5515 5506 5496 5487 5479 5471 5460 5449 5438 5428 5417 5408 5399 5389 5382 5377 5372 5369 5366 5360 5356 5355 5353 5352 5351 5350 5349 5349
5598 5593 5588 5582 5577 5571 5564 5558 5550 5544 5538 5531 5524 5515 5505 5496 5486 5475 5464 5455 5447 5438 5427 5418 5408 5398 5389 5380 5372 5365 5360 5356 5353 5352 5348 5344 5343 5341 5341 5341 5340 5339 5340